#timestamp,LO_Frequency,Hit,StdDev 
1559016015.6,286046999.8,N
1559016035.4,286047002.5,N
1559016055.2,286047002.7,N
1559016075.1,286047001.5,N
1559016076.0,286047001.5,N
1559016095.8,286047002.2,N
1559016115.7,286047002.3,N
1559016135.5,286047002.8,N
1559016155.3,286047002.1,N
1559016175.2,286047001.8,N
1559016195.9,286047001.3,N
1559016215.7,286047002.5,N
1559016235.6,286047002.2,N
1559016255.4,286047001.9,N
1559016275.2,286047001.6,N
1559016295.1,286047001.4,N
1559016296.0,286047001.4,N
1559016315.8,286047004.0,Y
1559016335.7,286046999.9,P
1559016355.5,286047002.4,N
1559016375.3,286047000.4,N
1559016395.2,286047000.6,N
1559016415.0,286047000.1,N
1559016415.9,286047000.1,N
1559016435.8,286047002.3,N
1559016455.6,286047002.3,N
1559016475.4,286047002.0,N
1559016495.3,286047001.6,N
1559016515.1,286047001.3,N
1559016535.8,286047002.1,N
1559016555.7,286047002.2,N
1559016575.5,286047002.3,N
1559016595.4,286047002.4,N
1559016615.2,286047000.4,N
1559016635.0,286047000.4,N
1559016635.9,286047000.4,N
1559016655.8,286046999.7,N
1559016675.6,286047002.1,N
1559016695.4,286047001.5,N
1559016715.3,286047001.6,N
1559016735.1,286047004.3,Y
1559016755.9,286047002.8,P
1559016775.7,286046999.7,N
1559016795.5,286046999.7,N
1559016815.4,286047002.6,N
1559016835.2,286047002.6,N
1559016855.0,286047000.1,N
1559016855.9,286047000.1,N
1559016875.8,286047002.1,N
1559016895.6,286047002.5,N
1559016915.5,286047004.3,Y
1559016935.3,286047000.7,P
1559016955.1,286047000.7,N
1559016975.9,286047000.4,N
1559016995.7,286047000.1,N
1559017015.6,286047000.8,N
1559017035.4,286047001.2,Y
1559017055.2,286046998.5,P
1559017075.1,286047000.8,N
1559017076.0,286047000.8,N
1559017095.8,286047001.1,N
1559017115.7,286046999.7,N
1559017135.5,286046999.7,N
1559017155.3,286046999.7,N
1559017175.2,286047000.1,N
1559017195.0,286047000.2,N
1559017195.9,286047000.2,N
1559017215.7,286047000.5,N
1559017235.6,286046998.1,N
1559017255.4,286046998.7,N
1559017275.3,286046998.5,N
1559017295.1,286046998.4,N
1559017315.8,286046999.0,N
1559017335.7,286046999.6,N
1559017355.5,286046998.9,N
1559017375.4,286046999.3,N
1559017395.2,286046999.6,N
1559017415.0,286046996.5,Y
1559017415.9,286046996.5,P
1559017435.8,286046998.9,N
1559017455.6,286046997.7,N
1559017475.4,286046997.4,N
1559017495.3,286046996.9,N
1559017515.1,286046999.3,N
1559017535.9,286046998.3,N
1559017555.7,286046998.3,N
1559017575.5,286046998.6,N
1559017595.4,286046999.4,N
1559017615.2,286047001.0,N
1559017635.1,286047000.3,N
1559017636.0,286047000.3,N
1559017685.8,286047001.7,E
1559017695.7,286047001.6,N
1559017715.6,286047000.3,P
1559017735.4,286047001.6,N
1559017755.3,286047004.4,Y
1559017775.1,286046999.8,P
1559017776.0,286046999.8,N
1559017795.8,286046999.9,N
1559017815.7,286047000.1,N
1559017835.5,286047000.9,N
1559017855.3,286046999.5,N
1559017875.2,286046999.5,N
1559017895.0,286046997.2,Y
1559017895.9,286046997.2,P
1559017915.8,286046996.8,N
1559017935.6,286046998.4,N
1559017955.4,286046998.1,N
1559017975.3,286047000.0,N
1559017995.1,286046999.9,N
1559018015.9,286047001.1,N
1559018035.7,286047000.7,N
1559018055.5,286047000.4,N
1559018075.4,286047000.5,N
1559018095.2,286046998.4,N
1559018115.0,286046997.6,N
1559018115.9,286046997.6,N
1559018135.8,286046996.7,N
1559018155.6,286046997.5,N
1559018175.5,286046998.0,N
1559018195.3,286046997.1,N
1559018215.1,286046997.2,N
1559018235.9,286046995.4,Y
1559018255.7,286046997.8,P
1559018275.5,286046996.9,P
1559018295.4,286046996.5,P
1559018315.2,286046997.3,Y
1559018335.1,286047000.3,P
1559018336.0,286047000.3,N
1559018355.8,286047000.1,N
1559018375.6,286047002.4,N
1559018395.5,286047001.7,N
1559018415.3,286047002.7,N
1559018435.1,286047002.3,N
1559018455.9,286046999.8,N
1559018475.7,286047000.9,N
1559018495.6,286047000.0,N
1559018515.4,286047002.7,N
1559018535.2,286047002.5,N
1559018555.1,286047000.4,N
1559018556.0,286047000.4,N
1559018575.8,286047002.4,N
1559018595.6,286047002.7,N
1559018615.5,286047000.3,N
1559018635.3,286047000.7,N
1559018655.2,286047000.1,N
1559018675.9,286047002.2,N
1559018695.7,286047001.4,N
1559018715.6,286047002.0,N
1559018735.4,286047000.1,N
1559018755.2,286047002.0,N
1559018775.1,286047004.4,Y
1559018776.0,286047004.4,P
1559018795.8,286047002.6,N
1559018815.7,286047000.1,N
1559018835.5,286047000.7,N
1559018855.3,286047000.8,N
1559018875.2,286046998.2,N
1559018895.9,286047000.8,N
1559018915.7,286046998.2,N
1559018935.6,286047002.4,N
1559018955.4,286047002.0,N
1559018975.2,286047002.1,N
1559018995.1,286047002.5,N
1559018996.0,286047002.5,N
1559019015.8,286047002.3,N
1559019035.7,286047001.9,N
1559019055.5,286047003.8,N
1559019075.3,286047003.1,N
1559019095.2,286047003.3,N
1559019115.0,286047006.0,Y
1559019115.9,286047006.0,P
1559019135.8,286047004.2,N
1559019155.6,286047004.1,N
1559019175.4,286047002.0,N
1559019195.3,286047001.9,N
1559019215.1,286047002.8,N
1559019235.8,286047002.4,N
1559019255.7,286047002.7,N
1559019275.5,286047001.8,N
1559019295.4,286047002.7,N
1559019315.2,286047000.0,N
1559019335.0,286047000.0,N
1559019335.9,286047000.0,N
1559019355.8,286047000.5,N
1559019375.6,286047000.9,N
1559019395.4,286047001.0,N
1559019415.3,286046999.2,N
1559019435.1,286046998.7,N
1559019455.9,286046999.3,N
1559019475.7,286047000.8,N
1559019495.5,286047000.3,N
1559019515.4,286047000.3,N
1559019535.2,286047000.1,N
1559019555.0,286047000.5,N
1559019556.0,286047000.5,N
1559019575.8,286047000.3,N
1559019595.6,286046998.2,N
